カタログに戻る

STARLINK-3356

運用中通信VLEO
NORAD 51133·PAYLOAD·🇺🇸 United States

打ち上げ Jan 19, 2022 から Cape Canaveral Space Force Station

Loading…

次のパス (今後24時間)

TLE

最新Source: CelesTrak SupGP

元期: Sep 14, 2026, 20:33 UTC

1 51133C 22005AF  26257.85673611  .00115860  00000+0  18863-2 0  2576
2 51133  53.1583 153.8558 0001597  89.6045 311.1738 15.51984391    10

AllMySatでSTARLINK-3356をリアルタイム追跡

Download on the App Store